Starlink 31447

operational
NORAD ID: 59302 Int'l Des: 2024-056 Owner: SPXS Country: US Constellation: starlink
LEOCIRCULAR

About Starlink 31447

Description loading...

Live Position

Loading 3D Globe...

Upcoming Passes

Altitude History

Altitude vs Time

uPlot chart will show altitude changes over time

Two-Line Element Set

1 59302U 24056G 25352.21446615 -.00000478 00000-0 -78465-5 0 9998
2 59302 43.0039 330.8481 0001463 274.1292 85.9392 15.27573646 98692
Epoch: Dec 18, 2025 • Age: 11 hours

Current Status

Altitude 494.2 km
Velocity 7.62 km/s
Sub-Earth Point -39.99°S, 110.48°W
Launch Date Mar 24, 2024
Age 1.7 years
Type internet

Technical Details

Classification Payload
Mass 730.00 kg
Dry Mass 700.00 kg
Total Mass 730.00 kg
Length 0.30 m
Diameter 4.10 m
Span 29.00 m
Shape Box + pan
Manufacturer SPXS
Bus Type Starlink V2M
Phase Status In Orbit
Owner/State SPXS/US

Large Constellations

Loading constellations...